This is the latest recevied weather packets stored in our database for station/object SR8WXB-1. If no packets are shown the sender has not sent any weather packets the latest 10 day(s).
| Time | Temp. | Humidity | Pressure | Rain* | Wind** | Luminosity | Snow |
|---|---|---|---|---|---|---|---|
| 1777206437 | 6.11° C | 100% | 944.5 hPa | - | - | - | - |
| 1777206197 | 6.67° C | 100% | 944.3 hPa | - | - | - | - |
| 1777205957 | 6.67° C | 100% | 944.4 hPa | - | - | - | - |
| 1777205719 | 7.22° C | 100% | 944.4 hPa | - | - | - | - |
| 1777205717 | 7.22° C | 100% | 944.4 hPa | - | - | - | - |
| 1777205477 | 7.78° C | 100% | 944.4 hPa | - | - | - | - |
| 1777205234 | 8.33° C | 100% | 944.4 hPa | - | - | - | - |
| 1777204994 | 8.33° C | 100% | 944.3 hPa | - | - | - | - |
| 1777204754 | 8.33° C | 100% | 944.3 hPa | - | - | - | - |
| 1777204514 | 7.22° C | 100% | 944.3 hPa | - | - | - | - |
| 1777204275 | 6.67° C | 100% | 944.4 hPa | - | - | - | - |
| 1777204020 | 6.11° C | 100% | 944.3 hPa | - | - | - | - |
| 1777203780 | 6.11° C | 100% | 944.4 hPa | - | - | - | - |
| 1777203300 | 6.11° C | 100% | 944.3 hPa | - | - | - | - |
| 1777203060 | 7.22° C | 100% | 944.2 hPa | - | - | - | - |
| 1777202817 | 7.22° C | 100% | 944.1 hPa | - | - | - | - |
| 1777202578 | 7.22° C | 100% | 944.1 hPa | - | - | - | - |
| 1777202338 | 7.22° C | 100% | 944 hPa | - | - | - | - |
| 1777202098 | 6.67° C | 100% | 944 hPa | - | - | - | - |
| 1777201858 | 6.11° C | 100% | 943.9 hPa | - | - | - | - |
| 1777201615 | 6.67° C | 100% | 944 hPa | - | - | - | - |
| 1777201374 | 6.67° C | 100% | 943.7 hPa | - | - | - | - |
| 1777201134 | 6.67° C | 100% | 943.9 hPa | - | - | - | - |
| 1777200894 | 6.67° C | 100% | 943.9 hPa | - | - | - | - |
| 1777200651 | 6.11° C | 100% | 943.9 hPa | - | - | - | - |
* Rain since midnight (hover to see other rain measurements)
** Current wind speed in m/s (hover to see current wind gust speed)